Overview Statistics Trail Chart Weather Telemetry Raw packets
 

This is the latest recevied weather packets stored in our database for station/object IZ7EXI-13. If no packets are shown the sender has not sent any weather packets the latest 10 day(s).

<< 12 13 14 15 16 17 18 >>
Time Temp. Humidity Pressure Rain* Wind** Luminosity Snow
1788424690 31.11° C 45% 1018.8 hPa - - - -
1788424666 31.11° C 45% 1018.8 hPa - - - -
1788423798 30.56° C 47% 1018.9 hPa - - - -
1788423766 30.56° C 47% 1018.9 hPa - - - -
1788422865 30° C 49% 1018.8 hPa - - - -
1788421965 29.44° C 54% 1018.7 hPa - - - -
1788421096 28.89° C 56% 1018.8 hPa - - - -
1788421065 28.89° C 56% 1018.8 hPa - - - -
1788420165 28.33° C 57% 1018.9 hPa - - - -
1788419295 27.78° C 58% 1018.8 hPa - - - -
1788419265 27.78° C 58% 1018.8 hPa - - - -
1788418364 27.22° C 59% 1018.8 hPa - - - -
1788417470 26.67° C 60% 1018.9 hPa - - - -
1788416564 26.67° C 62% 1018.9 hPa - - - -
1788415664 26.11° C 64% 1018.8 hPa - - - -
1788414763 25.56° C 68% 1018.8 hPa - - - -
1788413863 24.44° C 69% 1018.7 hPa - - - -
1788412963 23.89° C 69% 1018.6 hPa - - - -
1788412063 23.89° C 69% 1018.6 hPa - - - -
1788411163 23.89° C 68% 1018.5 hPa - - - -
1788410262 23.89° C 68% 1018.5 hPa - - - -
1788409362 23.89° C 67% 1018.5 hPa - - - -
1788408462 24.44° C 67% 1018.5 hPa - - - -
1788407562 24.44° C 66% 1018.4 hPa - - - -
1788406662 24.44° C 66% 1018.4 hPa - - - -

* Rain since midnight (hover to see other rain measurements)
** Current wind speed in m/s (hover to see current wind gust speed)